This is the latest recevied weather packets stored in our database for station/object EA5JUX. If no packets are shown the sender has not sent any weather packets the latest 10 day(s).
| Time | Temp. | Humidity | Pressure | Rain* | Wind** | Luminosity | Snow |
|---|---|---|---|---|---|---|---|
| 1787652702 | 29.44° C | 47% | 1013.8 hPa | 0 mm | - | - | - |
| 1787652402 | 30° C | 48% | 1013.9 hPa | 0 mm | - | - | - |
| 1787652102 | 29.44° C | 48% | 1013.9 hPa | 0 mm | - | - | - |
| 1787651802 | 30° C | 47% | 1013.9 hPa | 0 mm | - | - | - |
| 1787651502 | 29.44° C | 47% | 1014.1 hPa | 0 mm | - | - | - |
| 1787651209 | 29.44° C | 49% | 1014.1 hPa | 0 mm | - | - | - |
| 1787650902 | 29.44° C | 48% | 1013.7 hPa | 0 mm | - | - | - |
| 1787650602 | 29.44° C | 47% | 1013.3 hPa | 0 mm | - | - | - |
| 1787650302 | 28.89° C | 47% | 1013.3 hPa | 0 mm | - | - | - |
| 1787650001 | 28.89° C | 47% | 1013.7 hPa | 0 mm | - | - | - |
| 1787649702 | 28.89° C | 47% | 1013.9 hPa | 0 mm | - | - | - |
| 1787649402 | 28.89° C | 47% | 1014 hPa | 0 mm | - | - | - |
| 1787649103 | 28.33° C | 48% | 1014 hPa | 0 mm | - | - | - |
| 1787648802 | 28.33° C | 48% | 1014 hPa | 0 mm | - | - | - |
| 1787648502 | 28.33° C | 48% | 1013.6 hPa | 0 mm | - | - | - |
| 1787648220 | 28.33° C | 49% | 1014.1 hPa | 0 mm | - | - | - |
| 1787647902 | 27.78° C | 50% | 1014.2 hPa | 0 mm | - | - | - |
| 1787647602 | 27.78° C | 51% | 1014.1 hPa | 0 mm | - | - | - |
| 1787647302 | 27.78° C | 51% | 1013.5 hPa | 0 mm | - | - | - |
| 1787647002 | 27.78° C | 50% | 1013.2 hPa | 0 mm | - | - | - |
| 1787646702 | 28.33° C | 48% | 1013.7 hPa | 0 mm | - | - | - |
| 1787646402 | 28.33° C | 47% | 1013.7 hPa | 0 mm | - | - | - |
| 1787646114 | 27.78° C | 47% | 1013.9 hPa | 0 mm | - | - | - |
| 1787645818 | 27.78° C | 47% | 1013.8 hPa | 0 mm | - | - | - |
| 1787645501 | 28.33° C | 48% | 1013.8 hPa | 0 mm | - | - | - |
* Rain latest hour (hover to see other rain measurements)
** Current wind speed in m/s (hover to see current wind gust speed)